Location: Christchurch
(43.5330°S, 172.6330°E)
Time: 16:12:03
(UTC+13:00)

Cosmos 2263 Rocket - Pass Details

Date: 24 January 2019
Orbit: 824 x 848 km, 71.0° (Epoch: 19 February)

Event Time Altitude Azimuth Distance (km) Brightness Sun altitude
Rises 21:35:12 0° 202° (SSW) 3,412 6.4 -5.7°
Reaches altitude 10° 21:37:44 10° 196° (SSW) 2,475 5.5 -6.1°
Maximum altitude 21:43:16 51° 120° (ESE) 1,057 2.6 -6.9°
Drops below altitude 10° 21:48:46 10° 44° (NE) 2,465 4.0 -7.7°
Enters shadow 21:49:03 - 43° (NE) 2,566 4.1 -7.7°
